This is the latest recevied weather packets stored in our database for station/object SV9TNF-56. If no packets are shown the sender has not sent any weather packets the latest 10 day(s).
| Time | Temp. | Humidity | Pressure | Rain* | Wind** | Luminosity | Snow |
|---|---|---|---|---|---|---|---|
| 1788667381 | 23.33° C | 71% | 1013.2 hPa | 0 mm | 14.31 m/s, 295° | - | - |
| 1788667081 | 23.33° C | 73% | 1013.2 hPa | 0 mm | 18.33 m/s, 269° | - | - |
| 1788666781 | 23.33° C | 74% | 1013.2 hPa | 0 mm | 7.15 m/s, 264° | - | - |
| 1788666481 | 23.33° C | 73% | 1012.9 hPa | 0 mm | 12.52 m/s, 287° | - | - |
| 1788666181 | 23.33° C | 73% | 1012.9 hPa | 0 mm | 8.05 m/s, 276° | - | - |
| 1788665881 | 23.89° C | 72% | 1012.9 hPa | 0 mm | 11.18 m/s, 282° | - | - |
| 1788665581 | 23.33° C | 71% | 1012.9 hPa | 0 mm | 12.07 m/s, 278° | - | - |
| 1788665280 | 23.89° C | 68% | 1012.9 hPa | 0 mm | 16.09 m/s, 271° | - | - |
| 1788664981 | 23.33° C | 69% | 1013.2 hPa | 0 mm | 12.52 m/s, 264° | - | - |
| 1788664680 | 23.33° C | 71% | 1013.2 hPa | 0 mm | 17.88 m/s, 277° | - | - |
| 1788664380 | 23.33° C | 72% | 1012.9 hPa | 0 mm | 12.07 m/s, 284° | - | - |
| 1788664080 | 23.33° C | 73% | 1012.9 hPa | 0 mm | 12.52 m/s, 285° | - | - |
| 1788663780 | 23.33° C | 73% | 1012.9 hPa | 0 mm | 8.05 m/s, 264° | - | - |
| 1788663480 | 23.33° C | 74% | 1013.2 hPa | 0 mm | 12.52 m/s, 307° | - | - |
| 1788663180 | 23.33° C | 74% | 1012.9 hPa | 0 mm | 8.94 m/s, 300° | - | - |
| 1788662887 | 23.33° C | 74% | 1013.2 hPa | 0 mm | 13.86 m/s, 289° | - | - |
| 1788662580 | 23.33° C | 73% | 1012.9 hPa | 0 mm | 14.75 m/s, 277° | - | - |
| 1788662280 | 23.33° C | 73% | 1012.9 hPa | 0 mm | 16.99 m/s, 282° | - | - |
| 1788661980 | 23.89° C | 73% | 1012.9 hPa | 0 mm | 13.86 m/s, 284° | - | - |
| 1788661680 | 23.89° C | 72% | 1012.9 hPa | 0 mm | 16.99 m/s, 252° | - | - |
| 1788661379 | 23.89° C | 71% | 1012.9 hPa | 0 mm | 12.07 m/s, 287° | - | - |
| 1788661079 | 23.89° C | 70% | 1012.9 hPa | 0 mm | 11.18 m/s, 296° | - | - |
| 1788660779 | 23.89° C | 68% | 1012.9 hPa | 0 mm | 14.75 m/s, 276° | - | - |
| 1788660479 | 23.33° C | 68% | 1012.9 hPa | 0 mm | 8.49 m/s, 282° | - | - |
| 1788660179 | 23.33° C | 67% | 1012.9 hPa | 0 mm | 12.07 m/s, 282° | - | - |
* Rain latest hour (hover to see other rain measurements)
** Current wind speed in m/s (hover to see current wind gust speed)